Wetbulb
46.76 46.51 46.56 46.69 46.75 46.82 46.96 47.09 47.32 47.46 47.03 50.59 51.13 50.55 49.28 48.49 49.69 51.75 49.55 56.56 54.71 51.94 52.03 51.98 51.48 49.17 47.73 46.46 40.90 43.60 41.71 42.89 41.18 38.04 37.59 37.11 36.70 36.13 35.48 36.77 34.24 32.37 31.32 32.07 32.70 30.95 28.33 43.24 40.50 35.01 41.57 42.81 42.56 42.56
46.35 46.49 46.30 46.69 46.55 46.69 46.83 47.61 47.34 47.29 49.81 50.72 49.85 49.42 48.80 49.02 48.91 51.30 49.70 56.88 58.08 51.62 50.96 54.13 54.48 54.23 52.51 51.84 48.14 46.31 44.97 42.67 45.27 42.06 41.40 41.02 37.35 38.50 37.50 32.18 40.01 32.89 38.40 37.48 37.24 38.07 44.10 44.67 43.58 44.83 44.42 43.46 43.32 43.70
46.28 46.27 46.46 46.48 46.59 46.62 47.40 47.44 49.27 49.92 48.97 48.59 49.24 49.28 48.65 48.54 48.63 50.62 53.07 54.43 51.96 48.74 47.53 48.72 47.28 51.04 53.41 54.22 53.99 44.96 47.08 47.09 44.71 48.25 44.65 43.11 37.61 41.02 35.43 37.23 38.42 40.50 43.68 38.61 38.66 42.13 43.26 44.00 45.26 45.16 45.25 44.67 45.25 45.22
46.31 46.13 46.45 46.60 46.75 47.31 48.27 48.90 48.83 48.69 48.82 48.84 48.62 48.55 48.35 48.37 48.99 50.16 50.29 54.17 53.45 48.97 42.63 42.71 50.00 47.43 51.77 53.40 52.17 52.38 50.23 49.56 49.02 46.78 43.56 41.43 39.28 43.19 40.39 41.06 40.15 42.66 42.63 40.31 39.72 42.24 41.94 43.81 44.92 45.59 44.91 45.68 45.19 45.34
46.13 46.38 46.59 47.25 48.19 48.45 48.31 48.23 48.18 48.62 48.80 48.61 48.21 47.85 48.41 48.14 48.38 48.51 50.63 51.82 52.86 48.81 42.91 42.48 47.49 48.73 50.62 50.55 49.78 51.08 49.54 47.82 44.83 42.56 41.72 40.06 43.92 41.49 42.81 41.63 39.80 43.74 41.73 38.66 38.76 44.44 44.09 42.50 45.76 46.23 45.19 44.43 45.03 44.84
46.24 46.80 47.09 47.70 48.01 47.97 47.98 47.97 47.95 47.93 47.90 47.33 47.46 47.93 48.29 48.54 50.07 49.96 43.10 50.26 53.57 51.84 45.08 40.60 46.69 46.47 48.85 49.60 48.61 48.26 48.24 47.22 45.90 43.44 42.17 44.39 44.05 42.22 38.50 37.24 42.29 44.24 45.88 46.03 43.85 45.61 45.74 45.54 45.49 45.97 45.25 45.41 45.73 45.64
47.03 47.36 47.47 47.59 47.70 47.79 47.89 47.77 47.91 47.82 47.42 47.22 47.49 48.37 49.52 49.59 50.76 48.25 45.73 50.57 50.54 54.29 44.80 39.97 39.94 45.82 48.02 47.53 47.07 46.55 47.68 46.37 45.78 43.70 42.44 42.17 41.73 40.23 38.44 35.77 40.95 42.85 44.10 45.74 46.01 45.81 43.29 44.42 43.59 45.09 45.69 45.83 45.72 46.26
47.02 47.32 47.23 47.50 47.55 47.68 47.57 47.81 47.70 47.80 47.23 47.57 46.89 46.73 46.27 46.57 47.35 43.41 45.68 47.30 48.52 49.69 48.40 40.51 38.48 41.03 46.51 43.05 41.79 47.09 43.67 44.54 43.88 43.10 43.61 40.51 41.87 39.91 34.82 40.17 42.26 43.24 43.22 43.51 44.41 45.55 45.21 45.43 45.47 45.16 45.84 45.54 44.84 44.52
46.73 46.91 46.91 47.11 47.34 47.30 47.21 47.43 47.75 47.53 47.20 48.11 48.42 48.00 46.75 44.04 42.72 44.46 44.92 46.65 54.91 50.24 43.01 41.58 37.06 35.82 45.42 43.89 43.97 44.24 45.28 38.98 44.52 39.30 40.06 40.50 37.87 34.28 39.03 40.99 41.95 43.11 42.88 43.04 43.95 44.31 44.34 43.36 44.01 44.66 45.00 45.01 43.98 43.88
46.35 46.51 46.53 46.60 46.96 47.02 46.75 46.75 46.93 47.10 48.21 48.81 47.69 41.56 35.03 41.16 45.01 46.71 48.68 48.53 47.29 46.47 47.86 42.22 45.21 37.86 43.78 42.18 41.45 40.70 42.43 39.23 35.75 39.07 42.80 36.98 36.25 41.87 43.17 44.16 44.78 44.83 44.94 44.33 42.24 41.55 42.48 42.56 43.44 44.28 44.24 45.08 44.87 44.67
46.28 46.57 46.51 46.71 46.39 46.53 46.64 46.45 47.06 47.82 48.38 43.26 38.48 37.40 42.83 43.26 45.05 42.97 38.92 41.00 42.10 39.58 44.00 44.13 42.77 39.16 45.82 39.67 39.17 43.09 38.37 39.31 32.66 37.16 35.48 34.76 34.87 40.66 44.15 44.33 45.57 46.03 45.37 45.07 45.39 46.13 45.68 45.13 44.60 44.51 44.51 45.08 45.15 45.12
46.73 46.66 46.68 46.66 46.27 46.46 46.62 46.99 47.84 48.16 45.07 43.35 43.42 43.70 42.15 38.62 37.79 37.76 36.73 40.22 40.85 37.87 40.98 41.15 41.28 42.74 43.94 45.68 40.86 39.71 36.48 37.07 30.62 39.10 33.44 30.64 39.12 43.75 44.92 44.72 45.60 46.35 45.95 44.80 45.61 45.73 46.14 45.76 46.18 45.65 45.40 44.99 45.11 45.66
46.43 46.73 46.77 46.43 46.38 46.90 47.13 46.46 45.48 45.15 46.97 48.88 41.93 37.16 38.14 35.89 33.41 34.33 30.48 36.09 36.47 39.88 42.20 41.74 39.26 41.68 42.78 44.89 40.02 38.04 34.67 32.00 39.34 32.42 30.78 35.50 43.46 43.74 43.86 44.75 44.52 46.02 46.27 45.20 44.94 46.42 46.28 46.09 46.49 45.96 44.88 45.48 45.52 44.70
46.16 46.44 46.64 46.73 46.71 46.84 45.15 45.08 45.67 46.52 46.09 41.35 38.11 32.07 37.31 32.22 36.95 39.62 40.36 40.45 41.45 41.44 41.96 42.81 40.54 40.49 41.52 38.53 38.03 32.44 36.38 36.30 29.51 28.28 30.99 40.18 43.37 44.77 44.12 44.60 44.55 43.95 45.09 44.83 44.77 45.51 45.63 45.46 45.73 46.88 41.40 42.24 40.28 41.65
45.96 46.36 46.66 46.82 46.45 45.46 45.00 44.81 43.97 45.25 42.66 38.28 40.13 32.62 34.55 40.23 41.71 43.09 43.59 40.48 41.94 44.47 43.60 41.84 41.05 40.93 38.26 33.39 36.89 34.58 30.20 28.54 31.01 31.54 39.15 44.26 44.49 44.01 44.22 43.90 44.40 44.44 42.84 44.32 45.29 44.83 42.55 42.88 42.00 40.91 43.27 43.32 43.45 35.94
45.98 45.98 46.18 46.00 45.47 45.43 43.60 43.41 43.46 44.23 39.77 38.79 37.20 34.21 38.20 36.95 36.58 39.36 40.09 40.03 44.58 44.79 45.11 43.06 38.30 35.71 33.60 35.34 31.83 30.40 29.62 28.95 34.39 37.67 43.88 44.85 42.42 42.86 44.15 44.19 45.00 45.05 44.64 45.07 45.18 45.15 43.96 40.56 40.92 42.72 43.03 43.23 36.84 36.93
44.75 43.31 44.76 44.94 43.34 42.58 42.82 41.28 39.33 35.96 37.07 36.24 35.13 39.33 39.40 39.45 36.57 38.56 40.52 40.97 46.99 43.37 39.86 38.86 32.70 32.17 38.19 33.11 31.33 35.62 33.04 38.54 41.46 43.18 45.11 43.85 43.34 43.90 44.72 44.73 44.74 44.60 44.41 44.91 45.27 45.11 44.86 44.36 44.83 43.48 41.54 42.92 41.84 40.58
43.25 44.07 43.65 43.19 43.46 42.07 39.36 39.33 36.88 37.00 33.03 36.25 34.76 36.99 39.72 40.08 39.38 40.30 42.07 44.56 43.50 42.22 40.84 37.29 39.91 33.93 33.05 30.91 33.09 38.42 40.07 43.74 43.48 44.11 43.93 43.53 43.93 45.13 44.68 44.47 44.55 44.70 45.07 45.27 45.57 45.15 44.69 44.06 43.57 43.55 44.02 44.25 43.56 43.33
43.33 42.80 43.41 43.03 43.26 39.08 34.90 34.80 37.98 32.25 34.18 36.95 38.14 39.71 39.78 40.08 41.23 42.06 42.66 44.34 45.19 45.45 42.06 39.73 35.99 34.78 36.08 39.27 39.99 41.56 42.34 42.85 41.73 41.72 42.76 43.46 44.67 44.70 44.82 44.73 44.88 45.28 45.42 45.30 45.00 44.57 44.77 45.00 44.89 44.80 44.62 44.87 43.77 44.48
42.40 41.66 41.40 41.79 41.79 35.80 33.07 32.88 40.27 35.99 33.38 36.38 39.07 38.53 39.07 38.53 40.09 41.67 41.96 42.96 42.58 40.95 38.16 36.17 37.20 40.00 40.98 42.78 43.76 44.32 43.97 44.00 43.29 40.83 41.11 42.57 44.64 44.72 44.77 44.66 44.55 45.23 45.17 45.19 45.18 40.83 44.55 44.29 45.04 45.41 45.67 44.72 44.30 44.04
38.26 39.32 40.31 40.19 38.44 38.63 36.89 35.54 34.93 36.99 36.91 36.71 38.90 38.75 37.17 39.04 38.31 38.32 39.57 42.09 39.19 37.48 36.53 40.09 41.43 43.93 44.75 44.96 45.11 44.87 44.22 43.78 42.49 43.40 42.84 42.06 44.49 44.77 44.63 44.87 45.21 44.89 44.45 43.82 44.07 42.92 41.26 44.41 45.34 45.52 46.21 46.48 45.34 45.61
35.96 39.84 36.42 37.98 34.63 34.38 34.72 37.43 35.49 37.66 37.20 36.94 37.47 38.99 36.44 35.89 36.16 37.50 40.53 37.38 36.53 38.83 41.16 41.78 42.64 43.18 42.32 42.35 43.35 44.52 44.41 43.93 44.34 41.08 37.99 40.46 42.97 43.91 43.90 44.74 44.38 44.46 45.29 45.98 45.69 45.72 44.81 46.17 47.02 46.26 44.95 39.02 41.37 43.58
39.21 38.77 35.13 33.55 31.21 31.53 29.10 35.96 31.92 33.75 31.57 33.44 36.26 33.77 34.88 36.12 38.07 40.16 34.81 37.26 38.51 42.00 43.09 42.91 43.51 44.17 43.97 44.47 44.62 44.13 43.92 43.46 42.76 43.41 42.95 44.76 45.58 46.68 46.31 46.03 46.82 45.98 45.09 45.79 47.52 47.43 46.89 41.65 41.22 40.47 40.35 39.02 41.90 38.40
38.70 34.20 31.59 30.47 31.27 27.89 32.40 30.98 34.76 32.60 33.69 32.18 31.47 29.65 32.81 35.05 37.69 35.49 33.35 36.94 39.95 42.16 41.52 41.82 42.78 42.25 43.20 43.37 42.49 42.75 43.43 44.77 44.86 45.25 45.26 44.97 43.96 44.31 46.22 46.62 46.81 47.52 47.75 47.91 47.18 47.04 46.42 39.00 39.02 39.86 35.76 35.03 34.49 33.40
30.79 28.73 31.33 27.11 30.89 28.77 27.22 29.69 29.76 29.73 27.97 30.96 30.16 30.34 31.89 35.65 31.80 31.69 31.98 36.00 39.73 40.19 41.08 42.68 42.82 43.09 41.43 42.13 43.01 44.02 46.02 45.26 44.46 43.56 44.76 46.37 46.09 46.03 44.54 45.74 45.75 46.31 47.63 44.20 40.95 37.75 35.76 35.57 35.57 35.39 34.85 34.31 34.88 33.40
24.17 27.78 28.10 28.38 28.41 27.32 27.56 25.45 26.81 27.77 29.13 28.53 29.44 32.79 33.96 31.60 28.46 28.02 32.92 38.39 40.50 41.20 40.98 41.81 42.15 41.64 41.40 43.38 42.41 42.22 44.23 45.55 45.62 44.32 45.41 45.97 46.23 45.22 44.13 42.93 42.54 43.26 46.57 45.56 37.93 35.57 35.39 35.39 33.94 34.85 34.12 34.28 33.67 34.26
23.66 26.48 29.79 34.36 32.32 31.66 29.84 32.25 31.79 29.64 27.97 27.33 29.45 30.19 30.01 25.98 26.98 32.36 37.25 40.03 39.95 42.42 43.92 44.34 44.23 43.00 41.79 42.26 43.53 45.30 46.07 45.87 44.44 44.38 47.02 46.76 46.87 47.82 47.78 45.51 43.50 46.02 47.20 43.92 38.84 36.48 36.12 35.57 34.67 34.31 34.31 34.67 34.49 34.12
28.53 29.68 25.23 28.61 30.54 31.51 28.37 28.69 28.03 27.94 29.72 31.84 31.74 27.83 27.02 29.24 29.88 36.51 38.69 41.38 41.45 40.92 40.68 42.16 43.57 43.94 44.07 44.58 45.03 43.87 41.99 42.22 38.46 39.52 40.28 41.51 42.48 43.65 44.17 45.13 44.69 34.58 45.65 40.19 36.66 35.94 36.12 35.76 35.03 34.67 34.31 34.12 33.76 34.12
29.13 31.20 30.44 26.10 29.31 30.40 30.36 29.01 29.23 31.69 34.39 33.14 31.77 28.99 31.11 34.98 38.77 38.91 38.57 39.07 39.62 39.02 38.37 38.25 38.74 41.47 41.37 40.61 42.56 42.84 42.39 39.98 37.75 34.44 34.31 35.94 37.05 38.97 41.54 41.84 42.02 40.28 41.59 37.93 33.78 35.22 35.74 35.57 35.03 35.03 34.85 34.49 34.12 33.58
29.09 32.74 29.05 27.39 25.61 25.72 31.85 34.07 35.02 37.74 36.21 36.07 36.48 35.62 35.64 37.04 40.00 41.08 39.36 38.85 38.51 36.11 34.31 35.21 35.76 34.67 33.22 33.22 33.04 34.83 36.12 37.21 38.11 36.47 35.66 35.48 37.34 39.51 36.66 35.76 35.76 35.76 35.39 34.85 34.65 36.10 31.72 33.57 32.48 33.76 33.40 33.04 32.67 32.13
32.53 31.98 30.28 29.14 27.30 32.64 35.02 34.62 34.12 35.54 36.89 34.41 34.00 34.20 34.25 37.90 39.38 39.24 38.66 39.96 38.70 33.22 32.67 32.67 32.31 32.86 32.86 33.40 33.22 32.49 32.86 33.58 34.12 35.76 36.84 36.48 35.76 34.12 33.58 33.94 34.12 34.12 33.94 33.58 33.76 33.76 33.40 33.02 33.04 33.04 32.25 31.87 31.48 31.65
31.96 30.24 28.73 26.03 29.31 31.77 33.22 32.67 32.49 32.84 32.13 32.13 32.31 31.65 31.22 31.22 31.77 38.12 38.91 34.31 32.67 32.31 32.93 33.54 33.04 33.58 34.67 35.94 35.03 35.21 33.89 36.66 35.39 34.85 34.31 34.85 35.03 35.03 34.49 35.62 34.12 33.76 33.22 33.04 33.58 33.22 33.04 32.49 32.67 32.86 31.85 31.59 31.59 31.77
30.53 30.61 30.89 29.84 28.65 28.42 30.51 31.21 29.64 30.16 31.36 30.75 32.49 33.04 33.40 32.77 30.48 36.13 39.25 36.68 34.67 35.21 35.21 34.85 35.39 35.21 35.03 35.76 36.12 35.54 35.13 35.57 34.74 33.35 33.50 33.47 33.93 34.02 34.26 33.76 33.94 33.58 33.58 33.22 33.22 33.40 32.46 32.46 33.04 32.84 32.67 32.67 32.31 32.31
MSLP
981.04 983.31 985.60 987.79 989.69 991.40 993.45 994.50 995.62 996.71 998.34 999.41 1000.81 1002.05 1003.19 1004.68 1006.20 1006.01 1007.56 1007.51 1006.94 1006.93 1008.81 1010.40 1011.37 1012.02 1013.33 1014.40 1015.76 1018.42 1019.68 1020.51 1020.62 1020.78 1020.62 1020.28 1020.03 1020.68 1020.85 1021.07 1022.00 1022.86 1023.55 1023.64 1024.35 1023.72 1021.87 1020.32 1021.44 1021.30 1020.41 1020.92 1021.18 1021.66
983.19 984.98 986.88 988.77 990.35 991.67 993.14 994.98 995.96 997.22 998.18 998.92 1000.58 1002.11 1003.30 1004.74 1006.34 1005.55 1007.10 1006.82 1006.52 1008.58 1010.22 1011.73 1012.24 1012.83 1013.20 1013.81 1015.16 1017.64 1017.36 1018.70 1019.70 1020.15 1020.48 1020.16 1020.29 1020.49 1020.15 1020.24 1020.94 1021.58 1021.28 1021.28 1021.70 1021.00 1020.50 1020.03 1019.86 1020.36 1020.36 1020.60 1021.08 1021.33
985.37 986.66 988.04 989.88 991.20 991.90 993.40 993.06 993.67 995.54 997.73 998.93 1000.66 1002.09 1003.48 1005.04 1006.10 1006.41 1006.85 1007.68 1008.52 1010.61 1012.75 1013.51 1014.32 1014.74 1014.47 1014.49 1015.80 1016.36 1017.34 1018.13 1018.97 1019.57 1019.94 1019.76 1019.62 1019.85 1019.28 1018.99 1019.67 1019.94 1020.09 1020.36 1020.46 1019.49 1019.56 1019.81 1019.84 1019.91 1020.16 1020.38 1020.67 1021.26
986.94 987.94 988.99 990.07 991.26 992.04 992.75 994.05 995.17 996.42 998.01 999.57 1001.16 1001.99 1004.15 1005.16 1005.24 1005.10 1006.65 1007.42 1007.63 1009.97 1012.36 1015.57 1016.07 1016.02 1015.72 1015.82 1016.41 1016.40 1017.02 1018.30 1018.84 1019.40 1019.26 1019.15 1018.93 1019.12 1018.37 1018.01 1018.12 1018.17 1018.75 1018.91 1018.90 1018.70 1019.03 1018.81 1018.99 1019.30 1019.69 1020.10 1020.55 1021.10
988.16 988.80 989.70 990.42 991.06 992.04 992.74 994.07 995.48 996.68 998.56 999.80 1000.83 1002.40 1003.63 1004.84 1005.32 1006.05 1007.60 1008.46 1008.42 1009.23 1012.10 1015.07 1016.25 1016.81 1016.73 1016.77 1016.92 1017.26 1017.79 1018.46 1018.75 1018.90 1018.79 1018.64 1018.54 1019.18 1018.82 1018.54 1017.28 1017.08 1017.02 1017.56 1017.13 1017.16 1017.50 1017.36 1018.00 1018.67 1019.07 1019.67 1020.40 1020.98
989.68 990.13 990.68 991.19 991.82 992.54 993.68 995.02 996.50 997.58 998.62 1000.12 1001.31 1002.73 1003.96 1004.56 1004.40 1006.46 1008.96 1009.65 1008.73 1010.08 1012.11 1014.62 1016.94 1017.22 1017.08 1017.08 1017.26 1017.75 1018.16 1018.26 1018.36 1018.32 1018.41 1018.48 1019.44 1019.44 1018.13 1016.94 1015.96 1015.76 1016.21 1016.40 1016.47 1016.66 1017.19 1017.49 1018.06 1017.98 1018.61 1019.16 1019.83 1020.52
990.57 991.11 991.91 992.32 992.88 993.81 994.91 995.98 997.00 998.00 999.38 1000.98 1002.63 1003.88 1004.78 1005.74 1006.67 1007.96 1009.44 1009.83 1010.48 1010.30 1011.84 1014.66 1016.65 1017.59 1017.60 1017.76 1018.22 1018.61 1018.85 1018.63 1018.53 1018.62 1018.69 1018.58 1019.37 1019.86 1018.02 1016.35 1015.36 1015.20 1015.24 1015.74 1016.24 1016.58 1017.32 1017.54 1017.82 1018.05 1018.49 1019.02 1019.70 1020.34
991.11 991.98 992.68 992.98 993.60 994.46 995.44 996.38 997.45 999.02 1000.81 1002.02 1003.19 1004.81 1005.95 1006.86 1008.48 1009.81 1010.44 1010.76 1010.80 1010.06 1011.01 1013.36 1016.16 1017.73 1018.30 1017.78 1018.36 1018.66 1018.79 1018.96 1019.09 1018.74 1019.09 1018.76 1019.14 1019.20 1017.33 1015.60 1015.20 1014.83 1014.95 1015.60 1016.00 1016.57 1017.05 1017.30 1017.89 1018.03 1018.60 1019.10 1019.61 1020.36
990.35 991.91 993.10 993.30 994.40 995.38 996.42 997.58 998.81 1000.22 1001.42 1002.19 1003.56 1005.18 1006.47 1008.64 1010.18 1011.18 1011.47 1010.86 1009.97 1010.21 1011.30 1012.85 1014.47 1016.17 1017.54 1017.32 1018.26 1018.82 1018.62 1018.92 1019.38 1018.90 1018.56 1018.63 1017.93 1016.97 1015.47 1014.69 1014.20 1014.12 1014.28 1014.69 1015.48 1016.34 1017.06 1017.36 1017.62 1017.89 1018.54 1019.13 1019.81 1020.45
992.88 992.80 993.76 994.80 995.68 996.76 997.73 998.69 999.84 1001.12 1001.50 1002.73 1004.40 1006.40 1009.18 1010.89 1010.86 1010.54 1010.54 1010.37 1010.40 1011.07 1011.64 1012.32 1013.28 1015.08 1015.87 1017.16 1017.74 1018.56 1018.78 1018.44 1018.72 1018.33 1018.18 1017.86 1016.16 1015.07 1014.56 1014.12 1013.70 1013.70 1014.03 1014.86 1015.30 1015.87 1016.57 1017.08 1017.54 1017.93 1018.67 1019.30 1019.87 1020.47
994.41 995.08 995.69 996.30 997.28 998.15 999.01 999.92 1001.00 1001.76 1002.64 1004.24 1006.82 1008.94 1010.60 1010.80 1010.26 1010.99 1011.78 1011.56 1011.24 1011.34 1012.03 1012.82 1013.67 1014.06 1015.80 1016.26 1017.10 1017.90 1018.30 1018.46 1018.31 1017.75 1018.12 1016.30 1014.28 1013.24 1012.90 1012.80 1013.09 1013.30 1014.00 1014.49 1014.94 1015.41 1016.14 1016.64 1017.29 1018.02 1018.82 1019.33 1019.85 1020.45
995.61 996.17 996.85 997.74 998.62 999.34 1000.10 1000.87 1001.74 1002.26 1003.80 1004.75 1006.23 1009.14 1009.97 1010.37 1011.05 1011.26 1011.27 1011.06 1010.18 1010.80 1012.24 1012.47 1013.83 1014.78 1015.48 1016.40 1017.14 1018.40 1018.11 1018.60 1018.02 1018.40 1017.99 1015.51 1012.73 1011.94 1011.86 1012.24 1012.43 1012.76 1013.56 1014.38 1014.83 1015.23 1015.99 1016.62 1017.29 1018.07 1018.80 1019.47 1020.12 1020.78
996.23 996.81 997.80 998.73 999.39 1000.09 1001.03 1001.95 1002.46 1003.38 1003.24 1004.41 1006.13 1008.67 1009.38 1010.62 1010.43 1009.90 1010.12 1009.69 1010.04 1010.61 1011.43 1012.35 1013.73 1014.98 1016.58 1016.41 1017.22 1017.73 1018.13 1018.44 1018.44 1018.21 1016.54 1013.92 1012.05 1012.10 1012.34 1012.53 1012.98 1013.11 1013.23 1014.31 1014.81 1015.40 1016.15 1016.82 1017.52 1018.18 1018.88 1019.65 1020.56 1021.55
997.23 997.77 998.57 999.22 1000.22 1001.08 1001.90 1002.23 1002.74 1003.05 1003.22 1004.48 1006.29 1008.25 1008.42 1009.02 1008.54 1007.91 1007.65 1008.16 1009.01 1010.05 1011.17 1012.18 1013.26 1014.29 1015.53 1016.12 1017.21 1017.85 1017.81 1018.17 1017.71 1016.68 1014.10 1012.23 1011.56 1011.74 1012.68 1012.98 1013.18 1013.30 1013.33 1014.16 1014.88 1015.70 1016.39 1017.26 1017.99 1018.72 1019.53 1020.21 1021.29 1022.35
998.04 999.08 999.64 1000.61 1001.20 1001.98 1002.37 1003.41 1003.80 1003.82 1004.40 1005.15 1005.61 1007.36 1007.95 1007.68 1007.71 1007.66 1007.80 1008.64 1009.37 1010.20 1010.72 1012.24 1013.39 1014.15 1014.97 1016.45 1016.61 1017.14 1017.63 1016.81 1015.64 1013.67 1012.38 1011.92 1011.84 1012.30 1012.58 1013.17 1013.30 1013.53 1014.06 1014.45 1015.02 1015.92 1017.08 1017.85 1018.66 1019.41 1020.14 1020.90 1021.74 1022.98
998.96 999.92 1000.55 1001.45 1002.27 1003.02 1003.91 1003.85 1004.33 1004.59 1005.70 1005.98 1006.75 1007.58 1007.92 1008.50 1008.94 1008.95 1008.94 1009.19 1009.40 1009.58 1011.06 1011.81 1012.49 1013.59 1014.50 1014.89 1015.57 1015.82 1015.44 1014.40 1012.93 1012.37 1011.72 1011.84 1012.30 1012.51 1012.71 1013.26 1013.48 1013.88 1014.38 1014.70 1015.29 1016.29 1017.40 1018.20 1018.70 1019.40 1020.44 1021.02 1021.95 1022.92
999.47 1000.28 1001.43 1002.37 1003.31 1004.12 1004.32 1004.93 1006.00 1007.33 1007.49 1007.08 1007.76 1007.60 1007.64 1007.82 1008.71 1008.89 1008.94 1009.13 1009.08 1009.43 1010.24 1010.85 1011.62 1012.39 1013.17 1013.82 1014.06 1013.60 1012.91 1012.27 1011.94 1011.97 1011.98 1012.12 1012.26 1012.65 1013.04 1013.50 1013.93 1014.33 1014.64 1014.94 1015.58 1016.47 1017.23 1018.08 1018.60 1019.34 1020.11 1020.81 1021.78 1022.62
1000.49 1001.68 1002.51 1003.35 1003.74 1004.77 1006.63 1007.11 1007.55 1007.84 1007.93 1007.97 1007.89 1008.28 1008.35 1008.17 1008.62 1009.01 1008.99 1008.95 1009.40 1009.42 1009.72 1009.82 1010.56 1011.29 1011.86 1011.95 1011.72 1011.52 1011.74 1011.93 1012.21 1012.14 1012.32 1012.53 1012.60 1012.87 1013.34 1013.73 1014.14 1014.38 1014.65 1015.23 1015.88 1016.61 1017.37 1017.80 1018.41 1019.12 1019.65 1020.28 1021.08 1021.75
1001.54 1002.69 1003.56 1003.92 1004.37 1005.62 1007.45 1007.84 1007.43 1007.46 1008.18 1008.34 1008.40 1008.67 1008.91 1009.07 1009.24 1009.41 1009.54 1009.98 1009.70 1009.34 1009.98 1010.02 1009.96 1010.11 1010.24 1010.48 1010.66 1010.92 1011.20 1011.50 1011.95 1012.41 1012.64 1012.89 1012.92 1013.30 1013.60 1013.98 1014.18 1014.41 1014.92 1015.55 1016.14 1016.73 1017.36 1017.92 1018.34 1018.93 1019.51 1019.96 1020.51 1021.00
1003.06 1003.92 1004.42 1004.83 1005.06 1006.92 1008.28 1008.76 1008.07 1007.77 1008.26 1008.76 1008.95 1009.25 1009.44 1009.82 1010.22 1010.30 1010.16 1009.77 1009.59 1009.97 1010.14 1009.84 1009.46 1009.51 1009.86 1010.23 1010.70 1010.72 1011.06 1011.58 1011.94 1012.35 1012.64 1013.00 1013.15 1013.56 1013.73 1014.09 1014.33 1014.58 1015.20 1015.67 1016.27 1016.86 1017.26 1017.95 1018.34 1018.80 1019.42 1019.98 1020.43 1020.68
1004.40 1005.51 1005.53 1005.68 1006.61 1006.88 1007.56 1007.90 1007.98 1008.20 1008.48 1008.43 1008.67 1009.02 1009.74 1010.17 1010.10 1009.97 1010.06 1010.00 1010.20 1009.76 1009.30 1009.25 1009.51 1009.85 1010.38 1010.64 1010.97 1011.01 1011.36 1011.68 1011.80 1011.77 1011.97 1012.66 1013.14 1013.38 1013.78 1014.07 1014.38 1014.76 1015.23 1015.72 1016.28 1017.04 1017.28 1017.69 1018.41 1019.06 1019.63 1020.14 1020.62 1020.96
1005.99 1006.08 1006.65 1007.30 1008.04 1008.56 1008.19 1008.27 1007.74 1007.92 1008.15 1008.42 1008.71 1008.88 1009.55 1009.97 1010.04 1010.30 1010.43 1010.28 1009.66 1009.41 1009.29 1009.48 1009.74 1010.08 1010.60 1010.86 1011.02 1011.02 1011.39 1011.66 1011.82 1012.21 1012.21 1012.44 1013.01 1013.22 1013.57 1013.92 1014.41 1014.80 1015.04 1015.55 1016.07 1016.77 1017.32 1017.58 1018.04 1018.75 1019.49 1020.40 1020.79 1021.15
1006.17 1006.50 1007.42 1008.08 1008.68 1009.16 1009.82 1009.07 1008.28 1008.28 1008.49 1008.62 1008.74 1008.96 1009.33 1009.46 1009.71 1010.34 1010.52 1009.81 1009.36 1009.36 1009.42 1009.70 1009.75 1010.14 1010.34 1010.66 1011.01 1011.18 1011.49 1011.74 1011.90 1011.99 1012.32 1012.47 1012.73 1013.10 1013.42 1013.82 1014.29 1014.70 1014.95 1015.42 1015.90 1016.46 1017.26 1017.73 1018.28 1019.02 1019.79 1020.49 1020.88 1021.40
1006.78 1007.48 1008.20 1008.67 1008.92 1009.33 1009.54 1008.91 1008.21 1008.42 1008.47 1008.69 1008.69 1008.91 1009.18 1009.56 1010.14 1009.99 1009.16 1008.59 1008.84 1009.21 1009.44 1009.60 1009.87 1010.16 1010.49 1010.82 1010.99 1011.13 1011.44 1011.68 1011.68 1011.91 1012.08 1012.24 1012.51 1012.91 1013.19 1013.53 1014.01 1014.34 1014.62 1015.10 1015.78 1016.30 1017.08 1017.98 1018.51 1019.27 1019.86 1020.34 1020.84 1021.37
1007.42 1008.54 1008.43 1008.56 1008.69 1008.84 1008.76 1008.53 1008.24 1008.28 1008.56 1008.70 1008.67 1008.86 1009.26 1009.53 1009.34 1009.02 1008.34 1008.25 1008.60 1008.88 1008.99 1009.19 1009.44 1009.58 1009.77 1010.11 1010.51 1010.68 1011.12 1011.46 1011.39 1011.56 1011.90 1011.96 1012.15 1012.63 1013.10 1013.30 1013.62 1013.94 1014.41 1015.15 1015.70 1016.51 1017.20 1017.96 1018.57 1019.08 1019.56 1019.94 1020.28 1020.78
1007.67 1008.18 1007.94 1007.47 1007.66 1007.52 1007.60 1007.78 1007.84 1007.96 1008.23 1008.67 1008.83 1008.86 1009.18 1009.10 1009.07 1008.22 1007.26 1007.64 1007.85 1007.91 1008.33 1008.43 1008.45 1008.74 1009.08 1009.31 1009.62 1010.08 1010.40 1011.10 1011.33 1011.21 1011.30 1011.71 1011.90 1012.27 1012.60 1012.86 1013.19 1013.63 1014.08 1014.67 1015.64 1016.32 1016.89 1017.44 1018.03 1018.46 1018.87 1019.23 1019.66 1020.15
1007.22 1007.12 1006.95 1006.61 1006.48 1006.34 1006.73 1006.86 1006.95 1007.26 1007.66 1007.85 1008.23 1008.88 1008.88 1008.57 1007.70 1006.99 1006.93 1006.93 1006.91 1006.87 1007.10 1007.56 1007.82 1008.06 1008.10 1008.44 1009.04 1009.40 1009.95 1010.60 1010.96 1010.88 1010.99 1011.33 1011.62 1011.81 1012.04 1012.26 1012.48 1012.77 1013.42 1014.33 1015.22 1015.70 1016.14 1016.64 1017.17 1017.64 1018.02 1018.49 1018.84 1019.30
1006.21 1006.22 1006.28 1006.58 1006.39 1006.38 1006.54 1006.53 1006.62 1006.49 1006.51 1006.63 1007.34 1007.70 1007.46 1006.88 1006.14 1006.12 1006.15 1006.27 1006.84 1007.25 1007.38 1007.59 1007.85 1008.11 1008.26 1008.36 1008.67 1009.21 1010.11 1010.71 1011.34 1011.71 1011.84 1011.89 1011.87 1012.07 1012.24 1012.33 1012.58 1012.92 1013.30 1013.97 1014.61 1015.17 1015.50 1015.84 1016.32 1016.78 1017.22 1017.53 1017.98 1018.50
1005.42 1005.51 1005.99 1006.26 1006.40 1006.26 1006.25 1006.02 1005.78 1005.53 1005.56 1005.99 1006.37 1006.30 1006.27 1005.93 1005.84 1005.92 1006.26 1006.70 1007.20 1007.58 1007.90 1008.06 1008.28 1008.48 1008.59 1009.02 1009.14 1009.46 1010.04 1010.70 1011.29 1011.67 1011.83 1011.86 1012.04 1012.00 1011.98 1012.26 1012.65 1013.12 1013.46 1013.92 1014.34 1014.58 1014.94 1015.30 1015.66 1016.06 1016.51 1016.99 1017.50 1018.06
1004.58 1004.76 1005.31 1005.69 1005.75 1005.73 1005.71 1005.63 1005.73 1005.66 1005.66 1005.54 1005.67 1005.52 1005.62 1005.85 1006.00 1006.14 1006.45 1006.89 1007.36 1007.84 1008.16 1008.54 1008.77 1008.98 1009.08 1009.39 1009.71 1010.13 1010.33 1010.50 1010.53 1010.85 1011.02 1011.20 1011.22 1011.36 1011.65 1012.07 1012.48 1012.86 1013.36 1013.69 1013.99 1014.38 1014.95 1015.29 1015.68 1016.07 1016.42 1016.80 1017.20 1017.71
1003.88 1004.32 1004.55 1004.94 1004.99 1005.06 1005.28 1005.58 1005.94 1005.96 1005.83 1005.89 1005.93 1006.04 1006.13 1006.00 1006.17 1006.30 1006.52 1006.77 1007.35 1008.08 1008.47 1008.68 1008.90 1009.06 1009.32 1009.40 1009.55 1009.95 1010.18 1010.20 1010.34 1010.57 1010.72 1010.90 1011.07 1011.37 1011.67 1011.96 1012.16 1012.61 1013.02 1013.28 1013.50 1013.83 1014.46 1015.01 1015.30 1015.54 1015.92 1016.24 1016.61 1017.02
1004.00 1003.84 1003.98 1004.15 1004.54 1005.26 1005.50 1005.55 1005.81 1005.95 1006.07 1006.26 1006.33 1006.62 1006.68 1006.71 1006.37 1005.95 1006.27 1006.93 1007.48 1007.87 1007.98 1008.12 1008.39 1008.53 1008.68 1008.77 1008.82 1008.92 1008.67 1008.92 1009.53 1009.93 1010.27 1010.70 1011.01 1011.24 1011.57 1011.78 1012.10 1012.41 1012.63 1012.89 1013.09 1013.46 1013.99 1014.44 1014.72 1015.02 1015.44 1015.85 1016.30 1016.70
1003.94 1003.96 1003.75 1003.83 1004.25 1004.70 1005.06 1005.16 1005.26 1005.43 1005.65 1005.73 1005.75 1005.93 1005.98 1006.02 1005.80 1005.46 1005.82 1006.03 1006.25 1006.32 1006.73 1006.94 1006.88 1007.36 1007.72 1007.83 1007.96 1008.25 1008.49 1008.57 1008.75 1009.06 1009.38 1009.85 1010.24 1010.68 1011.08 1011.39 1011.68 1011.91 1012.18 1012.41 1012.69 1013.07 1013.48 1013.83 1014.12 1014.52 1014.89 1015.34 1015.82 1016.28
Wind_Speed
38 40 39 37 35 35 34 30 28 27 20 32 35 38 31 23 14 6 6 1 6 5 19 24 21 23 19 14 13 21 12 8 9 7 6 4 4 7 6 8 12 13 9 6 9 7 10 10 12 7 2 4 6 6
36 35 35 35 34 31 29 30 28 23 29 36 39 38 30 24 14 9 7 7 10 9 16 13 11 7 6 12 13 19 5 20 6 7 5 4 4 6 9 6 13 9 9 6 9 6 5 14 5 13 4 6 6 6
32 32 31 32 31 25 28 14 22 34 35 38 38 37 28 19 9 8 13 12 12 13 12 10 11 8 5 10 17 10 4 12 9 6 5 3 5 7 7 7 11 11 14 5 5 11 13 11 17 7 9 8 7 7
28 27 26 26 26 23 21 29 31 41 38 38 35 35 26 24 17 9 7 6 11 9 8 7 5 6 2 13 10 6 12 7 10 7 4 4 4 6 6 2 11 7 13 14 11 12 5 12 16 17 12 10 9 6
23 23 23 23 18 28 33 34 32 38 37 37 33 32 29 26 27 17 8 7 7 6 7 11 13 7 7 9 9 12 14 13 8 6 4 5 1 4 2 3 9 11 10 12 6 8 10 3 14 16 17 14 11 10
23 22 22 19 25 29 34 35 36 38 38 37 35 32 31 29 23 7 7 5 7 9 10 8 8 7 9 10 12 12 10 9 6 4 6 2 4 4 4 7 10 13 18 16 12 5 8 5 5 11 17 16 12 9
22 24 23 25 32 35 34 37 37 38 36 37 36 28 25 19 7 5 6 6 7 7 7 8 7 6 13 11 8 7 6 4 3 4 3 5 6 4 5 8 5 8 11 16 13 10 9 9 8 6 11 12 10 10
19 26 25 27 31 32 33 35 37 38 37 34 35 31 30 29 13 7 6 5 5 5 5 7 7 8 9 9 5 3 5 5 4 4 0 6 6 5 8 12 17 15 10 10 12 11 10 8 11 9 10 10 9 11
20 22 25 27 31 32 32 35 35 36 34 34 30 23 11 8 5 2 2 6 1 4 5 5 11 7 7 7 7 4 3 4 3 5 6 4 7 11 11 15 13 12 13 14 14 13 12 10 10 11 11 11 12 11
22 23 25 25 29 30 33 34 35 34 32 28 10 8 5 2 6 8 7 4 4 3 2 6 9 7 13 10 6 6 4 4 4 6 3 6 11 17 15 16 11 10 12 10 12 16 15 14 12 12 12 11 11 11
21 24 25 28 32 33 35 36 36 32 24 5 5 5 5 4 3 5 4 4 4 4 4 6 10 14 11 10 8 4 5 5 4 5 5 5 6 10 20 22 18 14 10 14 13 12 15 13 13 12 12 11 11 11
23 24 27 30 33 34 35 37 32 8 3 9 14 8 3 4 4 6 5 4 5 7 6 13 14 9 9 7 4 5 5 4 5 5 4 6 6 12 9 8 13 17 15 14 15 13 13 13 13 13 12 12 11 11
22 25 29 32 34 36 34 23 23 33 27 9 7 6 3 2 6 7 9 5 6 7 12 15 13 6 5 2 4 4 5 5 2 4 6 7 4 3 4 7 8 9 16 16 15 12 12 14 12 12 12 10 10 10
25 25 30 33 33 28 26 36 31 4 5 5 5 6 2 4 5 4 8 9 8 11 16 13 9 4 4 4 4 5 4 4 5 6 8 7 8 8 6 6 7 8 13 17 16 14 15 13 12 6 6 7 7 9
27 28 31 31 28 27 32 18 9 4 4 4 4 5 3 5 7 7 9 9 11 14 14 12 6 5 5 4 4 4 6 6 7 7 4 1 1 5 8 7 7 10 10 14 15 15 8 8 9 6 7 9 9 6
28 25 12 29 26 26 15 7 6 4 3 3 4 5 8 9 6 5 9 10 12 13 12 5 5 5 5 5 6 9 7 8 5 5 2 4 4 4 6 7 7 10 14 14 14 14 12 8 9 10 9 9 6 8
12 4 25 30 24 16 16 6 6 7 3 3 3 4 4 6 7 8 9 11 12 13 7 5 7 6 7 5 6 7 6 3 4 2 2 4 4 6 7 8 7 11 14 13 13 13 11 10 10 11 11 10 8 8
7 21 30 23 12 10 5 5 4 4 3 3 4 5 3 5 9 8 8 11 12 10 6 4 5 6 6 7 5 5 7 4 2 2 3 3 4 6 7 9 11 12 13 12 11 11 11 12 11 8 9 9 9 8
19 17 19 13 6 6 4 4 4 4 4 4 5 5 5 7 6 7 8 11 11 6 5 4 4 4 5 4 3 4 5 5 4 5 4 5 6 7 8 11 12 12 12 12 11 8 8 10 8 6 6 6 6 6
25 21 19 16 8 5 5 2 2 4 4 4 6 7 6 5 8 8 10 11 9 6 4 4 4 3 3 3 3 3 4 5 6 6 6 5 6 9 10 10 9 11 10 10 9 7 7 7 6 5 6 6 6 5
13 7 13 7 4 4 4 4 3 3 5 4 8 6 5 6 7 8 8 7 7 4 4 4 3 3 3 3 4 4 5 7 7 4 6 7 7 9 9 8 10 8 8 8 8 7 6 7 6 6 5 4 4 4
3 4 3 5 5 5 4 3 4 4 3 6 7 5 5 5 5 7 7 6 4 7 5 4 5 5 5 7 7 6 7 7 5 3 3 7 8 9 9 8 9 8 8 7 7 7 7 7 6 6 6 6 5 6
5 5 5 4 4 4 2 3 3 3 5 8 6 5 4 4 5 8 5 5 6 5 7 6 6 7 6 7 7 6 9 9 6 6 5 6 7 7 7 8 7 8 7 7 7 7 7 6 6 7 7 7 5 4
1 4 3 3 2 5 3 2 3 4 4 6 6 4 7 4 7 5 5 6 5 7 8 12 9 6 6 7 7 8 7 7 6 6 6 6 6 7 8 8 7 7 7 6 7 6 7 6 7 8 7 8 8 7
3 3 2 4 3 6 5 5 4 4 4 4 4 3 5 5 5 4 4 5 7 8 9 10 10 9 10 8 7 7 9 7 7 7 6 5 5 5 6 7 8 8 7 6 6 7 6 7 8 9 9 9 11 11
3 3 6 4 5 6 7 6 7 7 6 4 4 5 4 4 4 7 5 7 8 9 9 10 11 11 11 10 9 9 8 7 6 7 6 7 7 7 8 8 8 7 7 7 8 9 11 10 9 11 10 11 11 10
5 5 5 3 4 7 4 3 9 6 5 6 6 6 5 6 8 4 4 6 6 8 8 9 10 10 11 10 9 8 7 8 9 6 5 6 6 6 7 7 9 6 8 9 9 10 12 12 11 12 11 8 10 11
4 7 8 8 5 5 4 6 7 8 6 6 9 7 8 7 5 5 4 3 5 2 3 5 7 7 6 6 5 6 4 4 5 4 2 1 2 3 4 3 2 4 5 8 9 8 9 10 11 11 12 11 10 10
5 8 8 7 5 4 5 6 5 5 6 9 7 6 5 3 2 2 2 2 4 4 4 5 4 4 4 3 4 5 6 8 10 8 9 6 4 6 6 5 5 5 4 6 9 8 10 9 10 10 10 8 7 8
8 11 7 10 7 11 6 6 5 5 7 6 6 4 3 1 2 2 3 4 5 5 4 5 4 6 6 7 6 5 4 6 6 8 9 9 8 4 5 6 7 6 6 6 7 7 5 4 5 5 7 7 9 9
9 11 8 7 7 7 3 4 2 3 2 3 2 2 5 2 2 3 5 5 4 5 5 5 5 6 7 7 7 7 6 7 9 9 6 2 3 5 5 5 5 5 7 8 8 8 8 7 9 10 12 13 14 13
7 11 11 10 6 4 4 4 5 5 4 5 4 3 1 1 4 4 5 6 5 5 8 7 7 7 10 7 6 5 4 6 9 10 12 7 6 5 5 5 5 5 6 8 7 8 11 12 9 11 13 15 15 14
7 6 10 9 5 7 5 5 6 5 5 5 5 6 7 6 9 4 4 6 6 9 10 10 9 7 10 11 10 8 6 4 5 6 8 10 10 9 6 5 5 6 8 7 7 8 12 14 12 14 14 14 13 13
Wind_Direction
139 145 148 152 155 161 161 170 175 170 189 185 166 157 146 136 154 156 101 1 166 121 140 165 153 168 156 143 150 152 139 189 183 189 206 186 189 189 183 186 176 183 186 185 215 226 249 167 147 209 87 141 181 194
131 136 142 146 152 158 165 168 173 184 181 158 149 144 144 137 167 105 85 98 81 97 132 105 157 171 189 157 131 170 135 166 151 169 208 169 200 163 197 188 178 200 207 176 205 220 240 180 203 208 208 199 196 210
126 135 140 144 153 155 164 163 163 151 144 142 144 140 131 126 151 169 130 120 99 107 97 117 108 63 68 123 148 162 125 164 168 153 161 195 202 181 188 223 180 236 204 226 195 239 221 212 222 202 214 220 197 200
124 134 137 143 147 152 154 146 142 143 144 135 138 131 124 127 121 107 97 140 114 110 100 106 157 61 130 132 163 173 149 151 148 186 179 183 217 220 207 268 205 190 184 213 241 244 214 229 220 224 219 209 221 213
124 126 130 130 138 141 138 136 136 137 139 132 123 117 117 109 99 83 76 45 51 98 124 127 104 82 132 150 134 124 146 153 175 183 202 211 125 192 217 281 232 203 192 202 215 220 210 241 213 220 218 211 215 226
126 125 123 126 132 131 136 135 138 135 128 122 116 120 120 118 107 99 61 339 59 122 133 125 92 119 134 130 126 137 158 183 185 201 206 194 59 260 225 243 229 223 213 226 233 222 226 243 242 217 216 218 221 219
119 128 130 136 135 137 134 134 132 124 119 119 117 112 121 115 91 72 134 140 211 125 104 117 119 132 127 117 116 117 149 172 207 204 242 215 184 226 249 239 204 223 232 218 237 222 227 218 229 210 200 208 201 208
122 128 128 131 125 131 129 130 124 122 119 113 100 95 97 98 105 62 30 59 291 99 91 112 103 148 206 149 125 172 151 174 198 223 145 227 152 226 249 238 239 240 215 213 220 219 225 221 221 195 207 210 186 194
106 117 118 119 126 123 128 128 124 123 116 113 106 100 77 45 68 110 206 317 76 80 107 131 151 151 182 160 112 164 187 185 97 229 226 218 214 218 235 234 233 224 225 230 209 212 213 225 222 202 199 191 194 189
120 111 114 123 125 128 126 124 120 125 118 108 73 53 64 75 161 220 18 36 62 74 73 138 112 135 168 151 161 139 191 212 206 211 189 243 250 247 227 243 237 230 205 198 200 199 207 205 211 197 195 194 202 196
123 120 121 125 125 129 131 128 128 129 118 58 75 70 103 250 64 58 94 152 151 116 107 140 133 140 156 162 140 151 177 171 234 162 223 235 240 223 224 228 230 219 209 201 206 197 202 196 197 187 196 198 206 194
125 125 126 130 133 133 134 135 141 115 83 129 111 111 138 58 74 105 138 138 180 131 144 144 140 124 142 125 143 176 179 188 236 124 234 259 255 238 223 227 237 220 198 205 198 189 190 193 189 189 194 198 199 189
132 128 136 137 138 134 136 131 108 125 117 117 70 81 116 115 103 158 157 157 120 139 146 136 133 123 158 143 111 170 182 203 122 206 234 238 262 156 206 201 197 216 203 194 193 188 183 179 179 178 184 183 174 172
135 136 141 140 140 130 129 127 144 102 67 77 113 101 144 148 190 170 145 144 130 144 146 147 134 124 112 138 147 149 175 151 216 223 233 247 236 210 170 178 182 188 190 185 186 174 165 158 163 151 133 144 148 153
139 143 141 139 134 137 138 126 53 26 64 78 89 108 145 109 109 121 102 116 137 147 143 139 111 108 109 117 190 146 180 230 224 232 212 263 335 194 193 178 181 172 170 187 177 171 131 142 143 146 149 158 165 123
137 127 129 136 136 127 131 65 33 32 50 79 90 104 120 114 122 125 142 133 153 136 138 150 132 143 163 153 167 202 195 216 229 214 234 164 190 204 176 178 174 166 172 174 172 160 161 150 161 165 156 163 126 158
104 76 135 132 114 82 46 60 40 50 43 103 89 109 131 107 146 150 147 154 151 155 154 149 134 171 124 181 209 196 213 225 201 163 166 168 177 174 164 170 151 164 175 171 168 164 160 160 159 150 162 163 169 173
100 127 128 129 109 60 41 22 122 135 99 102 100 128 78 114 135 147 157 160 167 171 161 148 125 169 174 193 203 207 214 192 183 175 157 164 171 152 165 165 166 168 165 164 162 157 154 159 162 170 181 176 180 190
126 122 120 94 92 101 81 19 342 83 73 83 107 114 99 111 134 132 160 174 190 151 124 183 164 185 194 202 219 180 190 187 180 177 172 161 162 154 157 157 161 161 158 160 160 156 162 168 169 174 186 184 198 198
95 83 71 64 57 77 87 78 266 117 140 146 140 144 131 140 149 165 168 178 167 153 187 215 212 180 199 184 198 175 158 170 163 161 161 161 165 167 163 164 165 160 157 160 160 157 160 170 178 179 185 192 205 215
70 41 38 42 48 61 103 139 128 112 137 142 140 134 113 141 147 152 162 176 170 211 202 206 189 157 127 138 188 157 157 173 183 186 167 161 174 174 168 176 169 165 160 165 165 173 176 178 182 187 175 182 198 200
87 83 81 49 69 29 57 0 110 115 104 141 141 133 129 143 148 165 166 188 219 215 218 182 198 172 179 187 188 179 170 178 142 103 96 133 167 180 179 178 171 179 177 173 178 180 189 189 179 173 162 171 186 181
75 42 54 57 88 85 80 290 119 140 130 157 141 123 152 147 149 134 188 222 214 210 208 202 190 188 194 184 172 166 173 176 171 166 158 177 176 183 181 181 186 184 181 185 186 181 187 177 139 152 145 174 174 140
48 65 79 92 83 100 143 172 144 114 120 171 163 130 137 135 159 206 230 189 188 191 200 204 199 182 187 190 197 189 188 197 183 158 172 165 169 184 191 190 191 197 199 184 184 183 161 168 148 168 167 176 180 185
77 84 142 114 155 139 142 150 167 114 134 179 123 135 142 166 185 212 225 179 192 199 204 203 203 207 209 202 206 202 187 196 187 178 186 195 177 165 189 198 198 199 187 168 163 159 149 167 179 181 184 184 189 193
118 158 196 144 161 150 157 148 162 156 126 133 174 126 154 161 179 232 210 163 197 199 196 195 200 206 214 214 203 205 202 193 209 211 182 179 189 183 195 194 196 205 202 185 177 177 182 186 188 189 197 197 194 191
192 173 188 223 172 159 112 122 150 137 153 156 151 158 169 196 218 221 177 199 205 216 205 204 207 210 216 213 217 217 194 186 206 222 193 186 201 203 208 204 210 208 177 178 180 187 189 190 195 200 203 192 196 195
207 176 167 171 174 183 150 154 168 176 169 159 157 184 191 207 207 175 197 175 201 176 191 208 208 224 227 218 199 155 131 103 91 89 71 229 225 217 223 233 229 165 166 170 184 190 194 195 195 197 200 198 193 190
185 175 155 182 183 190 206 195 199 186 165 168 179 191 204 220 151 172 153 152 152 175 190 194 190 197 188 148 161 177 163 168 175 178 202 209 199 230 209 203 191 188 186 180 190 192 196 193 195 196 196 190 181 173
177 169 175 175 183 198 198 190 200 198 199 205 223 238 208 181 202 157 155 169 193 201 200 189 171 169 180 175 179 189 192 202 204 191 196 207 218 189 183 192 196 197 192 191 191 178 144 152 140 151 160 161 168 162
184 191 178 182 204 188 176 135 99 127 178 225 312 225 229 227 213 203 211 208 175 158 164 173 179 192 189 187 183 182 212 214 215 214 205 177 169 174 178 188 183 179 191 190 185 172 168 175 182 176 182 182 178 172
199 196 190 190 179 130 132 152 157 188 182 187 205 208 131 177 244 208 175 149 162 191 208 186 188 210 208 209 206 209 193 168 185 199 198 200 207 185 192 180 168 168 176 187 176 181 186 187 183 184 188 182 177 176
200 217 215 208 157 170 173 170 181 189 188 214 212 195 207 218 232 229 163 190 190 195 192 200 207 196 194 193 197 202 210 200 191 171 172 182 184 183 179 179 170 173 180 189 183 184 192 194 189 191 184 179 173 169